[[{"header":{"parameterUnit":"m.s-1","parameterCategory":1,"la1":30.2991,"la2":30.254,"lo1":-89.0895,"lo2":-89.0444,"dy":0.0017,"dx":0.0017,"nx":28,"ny":28,"refTime":"2023-08-04T09:00:00:Z","depth":0,"parameterNumber":2,"parameterNumberName":"U-component_of_WINDS"},"data":[0,0,0,0,0,0,0,0,0,0,0,0,0,0,0,0,0,0,0,0,0,0,0,0,0,0,0,0,0,0,0,0,0,0,0,0,0,0,0,0,0,0,0,0,0,0,0,0,0,0,0,0,0,0,0,0,0,0,5.2007,5.2008,0,5.2148,5.2149,5.2151,5.2078,5.2074,5.2071,5.2067,5.2213,5.222,5.2227,0,0,0,0,0,0,0,0,0,0,0,0,0,5.1674,5.168,5.2007,5.2008,5.201,5.2148,5.2149,5.2151,5.2079,5.2074,5.207,5.2065,5.221,5.2219,5.2228,0,0,0,0,0,0,0,0,0,0,0,0,0,5.1817,5.1682,5.2006,5.199,5.199,5.2147,5.215,5.2152,5.208,5.2074,5.2068,5.2063,5.2207,5.2218,5.2229,5.241,0,0,5.2263,5.2268,0,0,0,0,0,0,0,0,5.1809,5.1829,5.1991,5.1992,5.1992,5.2089,5.2085,5.2238,5.2081,5.2046,5.2067,5.206,5.2176,5.219,5.2228,5.2417,5.2423,5.2264,5.2271,5.2275,5.2278,0,0,0,0,0,0,0,5.1799,5.1823,5.2062,5.1993,5.1994,5.1976,5.199,5.2114,5.2141,5.2048,5.2043,5.2061,5.2176,5.2218,5.2231,5.2425,5.2264,5.2273,5.228,5.2284,5.2766,5.2772,0,0,0,0,0,0,5.179,5.1815,5.2058,5.2067,5.1885,5.1987,5.2002,5.2064,5.2139,5.2145,5.2066,5.2057,5.2202,5.2219,5.2236,5.2451,5.2275,5.2286,5.2292,5.276,5.2768,5.2774,0,0,0,0,0,0,5.1783,5.1812,5.2052,5.194,5.1969,5.1998,5.2068,5.207,5.2112,5.2152,5.2157,5.2104,5.2198,5.2221,5.2367,5.2455,5.2291,5.2301,5.2753,5.2762,5.2771,5.2883,0,0,0,0,0,0,5.1774,5.181,5.1879,5.1942,5.1975,5.2181,5.2074,5.2077,5.2131,5.2121,5.219,5.2196,5.2195,5.235,5.2378,5.2467,5.2309,5.2745,5.2757,5.2768,5.2871,5.2895,5.2915,0,0,0,0,0,5.1762,5.1906,5.1883,5.1913,5.2062,5.2186,5.2205,5.2201,5.2139,5.2208,5.2234,5.2193,5.2441,5.2366,5.2396,5.249,5.2739,5.2754,5.2767,5.2862,5.289,5.2914,0,0,0,0,0,0,5.1854,5.1914,5.1889,5.2058,5.2117,5.2173,5.2261,5.2232,5.2311,5.2299,5.2291,5.2307,5.2458,5.2489,5.2404,5.2668,5.2581,5.2601,5.2642,5.267,5.2691,5.268,5.2318,0,0,0,0,0,5.1894,5.199,5.2037,5.2181,5.2212,5.2232,5.2285,5.2277,5.2339,5.2364,5.24,5.2462,5.2553,5.2613,5.27,5.2876,5.2889,5.2955,5.2977,5.2995,5.3012,5.3105,5.3135,5.282,5.282,5.2819,0,0,5.1978,5.2022,5.2083,5.22,5.2245,5.2344,5.2253,5.2362,5.2435,5.238,5.2519,5.2549,5.2616,5.2778,5.2851,5.2808,5.3102,5.3012,5.3026,5.3034,5.3122,5.3152,5.3179,5.2829,5.2828,5.2826,0,0,5.2179,5.2224,5.2347,5.2394,5.2463,5.2475,5.2505,5.2565,5.2582,5.2722,5.2682,5.2769,5.2927,5.2976,5.3022,5.3241,5.3206,5.327,5.3382,5.3473,5.3498,5.352,5.3596,5.3624,5.3287,5.3287,5.3288,0,5.2274,5.2421,5.2414,5.2526,5.2578,5.2532,5.2657,5.2703,5.2797,5.2834,5.2785,5.2981,5.3023,5.3194,5.3247,5.3287,5.332,5.3261,5.3495,5.3517,5.3537,5.361,5.3639,5.3295,5.3294,5.3293,5.3292,0,5.2533,5.2636,5.2727,5.2818,5.2881,5.2998,5.3009,5.3073,5.3059,5.3076,5.3218,5.3268,5.3362,5.3403,5.3391,5.3572,5.3543,5.3495,5.3407,5.3574,5.3642,5.367,5.3305,5.3302,5.33,5.3298,0,0,5.2797,5.2881,5.2915,5.2955,5.3027,5.3106,5.3221,5.3313,5.3367,5.3434,5.3529,5.3663,5.3618,5.367,5.3664,5.3744,5.3911,5.3686,5.3687,5.3724,5.4111,5.4145,5.4177,5.3889,5.3895,5.3899,5.4104,0,5.3002,5.3202,5.3199,5.3384,5.3478,5.3436,5.3535,5.359,5.3609,5.3691,5.3712,5.3806,5.3742,5.3772,5.385,5.3875,5.3989,5.386,5.3977,5.3981,5.3959,5.4213,5.425,5.4441,5.4131,5.4136,5.4139,0,5.3268,5.3341,5.3536,5.3593,5.3632,5.3722,5.3804,5.3884,5.3945,5.3952,5.401,5.3991,5.4106,5.4016,5.4175,5.4087,5.4135,5.4154,5.4161,5.4171,5.4069,5.4227,5.4503,5.453,5.4181,5.4178,5.4175,0,5.3437,5.3586,5.3721,5.3756,5.3827,5.389,5.3923,5.3978,5.4033,5.4105,5.414,5.4226,5.4273,5.4339,5.4343,5.4277,5.4503,5.4413,5.4511,5.4511,5.4559,5.4556,5.4844,5.4594,5.4593,5.4593,5.4592,0,5.3666,5.3786,5.3797,5.3881,5.4013,5.4008,5.414,5.4166,5.4216,5.4302,5.4272,5.4354,5.4355,5.4439,5.4443,5.4572,5.4595,5.4603,5.4602,5.4605,5.4603,5.4634,5.462,5.46,5.4599,5.4597,5.4596,0,5.3877,5.389,5.4034,5.4088,5.4105,5.42,5.4246,5.4325,5.434,5.445,5.4476,5.4501,5.4597,5.4608,5.4721,5.4723,5.4879,5.4865,5.4858,5.4855,5.4951,5.4941,5.5268,5.531,5.5035,5.5037,5.5039,0,5.4021,5.4112,5.4176,5.4231,5.4267,5.4357,5.4412,5.4411,5.4469,5.4545,5.4614,5.4707,5.4781,5.4938,5.4966,5.5051,5.5038,5.5147,5.5051,5.5049,5.5037,5.503,5.5038,5.5165,5.5168,5.517,5.5172,0,5.4274,5.4276,5.4356,5.4439,5.4505,5.4571,5.4632,5.4679,5.4685,5.4753,5.485,5.4908,5.5022,5.5115,5.5199,5.5232,5.5203,5.5202,5.5229,5.5231,5.5222,5.5226,5.4906,5.5195,5.5192,5.5191,5.5189,5.5189,5.4455,5.4533,5.4589,5.4679,5.4725,5.4782,5.4858,5.4882,5.4964,5.5056,5.505,5.5158,5.5215,5.5325,5.5364,5.5447,5.5411,5.5451,5.546,5.5469,5.5478,5.5211,5.5463,5.5462,5.5462,5.5461,5.5461,0,5.4704,5.4738,5.4821,5.4907,5.4977,5.4944,5.5009,5.507,5.5165,5.5221,5.5294,5.5405,5.5495,5.5529,5.5616,5.5676,5.5665,5.5699,5.5693,5.5701,5.5507,5.5473,5.5706,5.5706,5.5706,5.5706,5.5706,5.5706,5.4842,5.4971,5.4979,5.5131,5.5164,5.5268,5.5308,5.536,5.5404,5.5529,5.5603,5.5625,5.5671,5.5761,5.5841,5.5849,5.5881,5.5921,5.5923,5.574,5.5715,5.5691,5.566,5.5928,5.5929,5.611,5.6111,5.6112]},{"header":{"parameterUnit":"m.s-1","parameterCategory":1,"la1":30.2991,"la2":30.254,"lo1":-89.0895,"lo2":-89.0444,"dy":0.0017,"dx":0.0017,"nx":28,"ny":28,"refTime":"2023-08-04T09:00:00:Z","depth":0,"parameterNumber":3,"parameterNumberName":"V-component_of_WINDS"},"data":[0,0,0,0,0,0,0,0,0,0,0,0,0,0,0,0,0,0,0,0,0,0,0,0,0,0,0,0,0,0,0,0,0,0,0,0,0,0,0,0,0,0,0,0,0,0,0,0,0,0,0,0,0,0,0,0,0,0,1.1988,1.1988,0,1.2059,1.206,1.206,1.2058,1.2057,1.2056,1.2055,1.2129,1.2132,1.2135,0,0,0,0,0,0,0,0,0,0,0,0,0,1.185,1.1852,1.1988,1.1988,1.1989,1.2059,1.206,1.2061,1.2058,1.2057,1.2056,1.2054,1.2128,1.2132,1.2135,0,0,0,0,0,0,0,0,0,0,0,0,0,1.1914,1.1853,1.1987,1.1996,1.1998,1.2058,1.206,1.2061,1.2058,1.2057,1.2055,1.2054,1.2127,1.2131,1.2136,1.2192,0,0,1.2149,1.2151,0,0,0,0,0,0,0,0,1.1911,1.1919,1.1994,1.1996,1.1998,1.2048,1.2038,1.2105,1.2059,1.2035,1.2055,1.2053,1.2103,1.211,1.2126,1.2196,1.2199,1.2149,1.2152,1.2154,1.2155,0,0,0,0,0,0,0,1.1906,1.1916,1.2016,1.1995,1.1997,1.1997,1.2004,1.2051,1.2077,1.2037,1.2037,1.2046,1.2104,1.2122,1.2128,1.22,1.2149,1.2153,1.2156,1.2157,1.2319,1.232,0,0,0,0,0,0,1.19,1.1912,1.2014,1.2018,1.1949,1.2001,1.2009,1.2033,1.2076,1.2081,1.2047,1.2045,1.2115,1.2123,1.2131,1.22,1.2154,1.2158,1.216,1.2317,1.2319,1.2321,0,0,0,0,0,0,1.1897,1.1909,1.2011,1.1965,1.1978,1.2005,1.2032,1.2035,1.2053,1.2084,1.2088,1.206,1.2114,1.2124,1.2177,1.2202,1.216,1.2164,1.2315,1.2318,1.232,1.2338,0,0,0,0,0,0,1.1893,1.1908,1.193,1.1966,1.1981,1.2056,1.2033,1.2038,1.2061,1.2059,1.2098,1.2103,1.2114,1.217,1.2181,1.2207,1.2167,1.2313,1.2316,1.2319,1.2336,1.2341,1.2346,0,0,0,0,0,1.1888,1.1932,1.1931,1.1943,1.2009,1.2057,1.2066,1.2078,1.2063,1.2085,1.2104,1.2101,1.2197,1.2176,1.2188,1.2216,1.2311,1.2315,1.2319,1.2333,1.234,1.2346,0,0,0,0,0,0,1.19,1.1937,1.1936,1.1994,1.2022,1.2057,1.2085,1.2085,1.2118,1.2116,1.2129,1.2138,1.219,1.2208,1.2183,1.2272,1.2252,1.2259,1.2259,1.2266,1.2271,1.2266,1.2171,0,0,0,0,0,1.1909,1.1945,1.1976,1.2024,1.2038,1.2059,1.2081,1.2087,1.2117,1.213,1.2153,1.2183,1.2219,1.2243,1.2279,1.2337,1.2346,1.2363,1.2368,1.2372,1.2378,1.2409,1.2417,1.2333,1.2333,1.2333,0,0,1.1928,1.1953,1.1976,1.2027,1.2049,1.2087,1.2069,1.211,1.2137,1.2136,1.2187,1.2204,1.2238,1.2294,1.2319,1.231,1.2402,1.2377,1.238,1.2383,1.2414,1.2422,1.2429,1.2336,1.2335,1.2335,0,0,1.1983,1.2006,1.2048,1.207,1.2105,1.2118,1.2128,1.2163,1.2174,1.2225,1.2224,1.2257,1.2321,1.2345,1.2365,1.2427,1.2425,1.2438,1.2465,1.2496,1.2503,1.2509,1.2531,1.2538,1.2443,1.2443,1.2443,0,1.2003,1.2059,1.2069,1.211,1.2132,1.2131,1.2174,1.2195,1.224,1.2255,1.2244,1.2323,1.2346,1.2406,1.2421,1.2438,1.245,1.2434,1.2501,1.2507,1.2513,1.2534,1.2542,1.2445,1.2444,1.2444,1.2444,0,1.2082,1.2121,1.215,1.2192,1.2218,1.2259,1.2276,1.23,1.2304,1.2318,1.2369,1.2397,1.2437,1.2452,1.2456,1.2513,1.2506,1.2498,1.2478,1.2522,1.2542,1.255,1.2447,1.2446,1.2446,1.2445,0,0,1.2148,1.2194,1.2205,1.2224,1.2261,1.2291,1.2331,1.237,1.2391,1.2421,1.2456,1.2508,1.25,1.2523,1.253,1.2557,1.2604,1.2545,1.2546,1.2555,1.2668,1.2674,1.2684,1.2602,1.2604,1.2605,1.2665,0,1.2207,1.2279,1.2289,1.2353,1.2388,1.2387,1.2422,1.2449,1.2463,1.2495,1.251,1.2548,1.2534,1.2548,1.2574,1.2592,1.2627,1.2588,1.2635,1.2636,1.2627,1.2694,1.2702,1.2757,1.2673,1.2674,1.2675,0,1.2286,1.2317,1.2385,1.2416,1.2431,1.2462,1.2498,1.2529,1.2558,1.2567,1.2592,1.2595,1.2637,1.2614,1.2672,1.2645,1.2665,1.2676,1.2679,1.2684,1.2659,1.2702,1.2775,1.2783,1.2688,1.2687,1.2686,0,1.2328,1.2387,1.2434,1.245,1.2488,1.251,1.2526,1.2554,1.2577,1.2608,1.2622,1.2658,1.2678,1.2706,1.2718,1.2701,1.2775,1.2754,1.2783,1.2783,1.28,1.2799,1.2878,1.2811,1.2811,1.2811,1.2811,0,1.2393,1.2434,1.2453,1.2483,1.2528,1.2539,1.2584,1.26,1.2624,1.2656,1.2657,1.2688,1.2702,1.2734,1.2744,1.279,1.2799,1.2807,1.281,1.2808,1.2807,1.2821,1.2818,1.2813,1.2813,1.2812,1.2812,0,1.2448,1.2462,1.2514,1.2545,1.2553,1.2586,1.2612,1.264,1.2653,1.2694,1.2704,1.2725,1.2763,1.2777,1.2824,1.2831,1.2884,1.2883,1.2874,1.2875,1.2904,1.2901,1.2995,1.3008,1.2932,1.2933,1.2934,0,1.2489,1.2521,1.2554,1.2575,1.2593,1.2627,1.265,1.266,1.2684,1.2719,1.2743,1.278,1.2811,1.2872,1.2891,1.2927,1.2927,1.2957,1.2932,1.2929,1.2928,1.2926,1.2929,1.2962,1.2963,1.2964,1.2964,0,1.2561,1.2566,1.2598,1.2633,1.2659,1.2687,1.2714,1.2731,1.2746,1.2772,1.281,1.2834,1.2881,1.2918,1.2954,1.2972,1.2971,1.2971,1.298,1.2979,1.2973,1.2977,1.2887,1.297,1.2969,1.2969,1.2968,1.2968,1.2611,1.2638,1.2666,1.2701,1.2722,1.2747,1.2775,1.2791,1.2823,1.2861,1.2865,1.2907,1.2934,1.2982,1.3001,1.3033,1.3025,1.3038,1.3041,1.3044,1.3047,1.2967,1.304,1.304,1.304,1.3039,1.3039,0,1.2682,1.2699,1.2732,1.2769,1.2797,1.2792,1.2821,1.2845,1.2881,1.2906,1.2936,1.298,1.3016,1.3037,1.3073,1.3095,1.3095,1.3104,1.3103,1.3106,1.3052,1.3041,1.3103,1.3103,1.3103,1.3103,1.3103,1.3103,1.2723,1.2769,1.2777,1.2834,1.2851,1.2891,1.2908,1.293,1.2951,1.2999,1.3029,1.3042,1.3066,1.3103,1.3135,1.3141,1.3154,1.3164,1.3168,1.3117,1.311,1.3104,1.3094,1.3166,1.3166,1.322,1.3221,1.3221]}]]